This is the latest recevied weather packets stored in our database for station/object IU0KRR-10. If no packets are shown the sender has not sent any weather packets the latest 10 day(s).
| Time | Temp. | Humidity | Pressure | Rain* | Wind** | Luminosity | Snow |
|---|---|---|---|---|---|---|---|
| 1787860190 | 23.89° C | 53% | 879.7 hPa | - | - | - | - |
| 1787859289 | 23.89° C | 53% | 879.6 hPa | - | - | - | - |
| 1787858388 | 23.89° C | 56% | 879.5 hPa | - | - | - | - |
| 1787857488 | 23.89° C | 59% | 879.5 hPa | - | - | - | - |
| 1787856587 | 23.89° C | 60% | 879.7 hPa | - | - | - | - |
| 1787855687 | 23.89° C | 56% | 879.7 hPa | - | - | - | - |
| 1787854787 | 24.44° C | 59% | 879.9 hPa | - | - | - | - |
| 1787853886 | 24.44° C | 58% | 879.8 hPa | - | - | - | - |
| 1787852985 | 24.44° C | 52% | 879.9 hPa | - | - | - | - |
| 1787852085 | 25° C | 60% | 879.7 hPa | - | - | - | - |
| 1787851184 | 25.56° C | 64% | 879.9 hPa | - | - | - | - |
| 1787850356 | 26.11° C | 62% | 879.6 hPa | - | - | - | - |
| 1787850284 | 26.11° C | 62% | 879.6 hPa | - | - | - | - |
| 1787849382 | 26.67° C | 59% | 879.7 hPa | - | - | - | - |
| 1787848484 | 27.22° C | 57% | 879.9 hPa | - | - | - | - |
| 1787847839 | 27.78° C | 53% | 879.6 hPa | - | - | - | - |
| 1787846829 | 27.78° C | 50% | 879.7 hPa | - | - | - | - |
| 1787846184 | 28.33° C | 47% | 879.7 hPa | - | - | - | - |
| 1787845167 | 28.89° C | 43% | 879.6 hPa | - | - | - | - |
| 1787843883 | 28.89° C | 43% | 879.6 hPa | - | - | - | - |
| 1787842966 | 28.89° C | 43% | 879.7 hPa | - | - | - | - |
| 1787842414 | 29.44° C | 41% | 879.5 hPa | - | - | - | - |
| 1787841130 | 29.44° C | 39% | 879.7 hPa | - | - | - | - |
| 1787840211 | 30° C | 38% | 879.4 hPa | - | - | - | - |
| 1787839293 | 30° C | 36% | 879.3 hPa | - | - | - | - |
* Rain since midnight (hover to see other rain measurements)
** Current wind speed in m/s (hover to see current wind gust speed)